This is the latest recevied weather packets stored in our database for station/object K5BOU. If no packets are shown the sender has not sent any weather packets the latest 10 day(s).
| Time | Temp. | Humidity | Pressure | Rain* | Wind** | Luminosity | Snow |
|---|---|---|---|---|---|---|---|
| 1777825288 | 25° C | 50% | 1020.9 hPa | 0 mm | - | 859 W/m² | - |
| 1777824984 | 25° C | 47% | 1020.9 hPa | 0 mm | - | 856 W/m² | - |
| 1777824680 | 25.56° C | 49% | 1021 hPa | 0 mm | - | 818 W/m² | - |
| 1777824377 | 25.56° C | 50% | 1021.1 hPa | 0 mm | - | 821 W/m² | - |
| 1777824073 | 25° C | 51% | 1020.8 hPa | 0 mm | - | 811 W/m² | - |
| 1777823770 | 25.56° C | 53% | 1021 hPa | 0 mm | - | 815 W/m² | - |
| 1777823467 | 24.44° C | 52% | 1020.9 hPa | 0 mm | - | 807 W/m² | - |
| 1777823164 | 23.89° C | 58% | 1020.8 hPa | 0 mm | - | 803 W/m² | - |
| 1777822862 | 23.89° C | 55% | 1021 hPa | 0 mm | - | 778 W/m² | - |
| 1777822559 | 23.33° C | 59% | 1021.1 hPa | 0 mm | - | 773 W/m² | - |
| 1777822256 | 23.33° C | 58% | 1021 hPa | 0 mm | - | 747 W/m² | - |
| 1777821954 | 23.89° C | 57% | 1021.1 hPa | 0 mm | - | 736 W/m² | - |
| 1777821652 | 23.33° C | 60% | 1020.8 hPa | 0 mm | - | 723 W/m² | - |
| 1777821350 | 23.33° C | 60% | 1020.9 hPa | 0 mm | - | 699 W/m² | - |
| 1777821046 | 23.33° C | 61% | 1020.7 hPa | 0 mm | - | 672 W/m² | - |
| 1777820743 | 23.33° C | 62% | 1020.7 hPa | 0 mm | - | 655 W/m² | - |
| 1777820439 | 23.33° C | 63% | 1020.8 hPa | 0 mm | - | 629 W/m² | - |
| 1777820137 | 22.78° C | 64% | 1020.8 hPa | 0 mm | - | 613 W/m² | - |
| 1777819833 | 22.78° C | 64% | 1020.8 hPa | 0 mm | - | 618 W/m² | - |
| 1777819531 | 22.78° C | 68% | 1020.6 hPa | 0 mm | - | 560 W/m² | - |
| 1777819229 | 22.22° C | 69% | 1020.6 hPa | 0 mm | - | 575 W/m² | - |
| 1777818925 | 22.22° C | 71% | 1020.4 hPa | 0 mm | - | 560 W/m² | - |
| 1777818621 | 22.22° C | 70% | 1020.7 hPa | 0 mm | - | 512 W/m² | - |
| 1777818319 | 21.67° C | 72% | 1020.6 hPa | 0 mm | - | 475 W/m² | - |
| 1777818015 | 21.11° C | 74% | 1020.7 hPa | 0 mm | - | 417 W/m² | - |
* Rain latest hour (hover to see other rain measurements)
** Current wind speed in m/s (hover to see current wind gust speed)